Tracking 20621 objects as of 29-Mar-2020
HD Live streaming from Space Station
objects crossing your sky now

COSMOS 400

Track COSMOS 400 now!
10-day predictions
COSMOS 400 is classified as:


NORAD ID: 5050
Int'l Code: 1971-020A
Perigee: 991.0 km
Apogee: 1,007.1 km
Inclination: 65.8 °
Period: 104.9 minutes
Semi major axis: 7370 km
RCS: 1.4626 m2 (large)
Launch date: March 18, 1971
Source: Commonwealth of Independent States (former USSR) (CIS)
Launch site: PLESETSK MISSILE AND SPACE COMPLEX (PKMTR)
aabbcc
Your satellite tracking list
Your tracking list is empty




NASA's NSSDC Master Catalog

Two Line Element Set (TLE):
1  5050U 71020A   20088.90216953 -.00000083 +00000-0 -28772-5 0  9997
2  5050 065.8256 018.5875 0010905 234.6053 184.8311 13.72141154456321
Source of the keplerian elements: AFSPC